Location: Unspecified
(0.0000°N, 0.0000°E)
Time: 22:52:16
(UTC+00:00)

ATLAS 5 CENTAUR R/B DEB - Pass Details

Date: 29 April 2025
Orbit: 8950 x 34203 km, 12.6° (Epoch: 13 May)

Event Time Altitude Azimuth Distance (km) Brightness Sun altitude
Rises 11:00:24 0° 257° (WSW) 13,950 ? 69.7°
Reaches altitude 10° 11:09:03 10° 255° (WSW) 12,920 ? 71.1°
Maximum altitude 19:55:31 66° 52° (NE) 30,511 ? -28.5°
Drops below altitude 10° 23:13:09 10° 93° (E) 15,538 ? -71.6°
Sets 23:23:36 0° 96° (E) 15,618 ? -73.0°
